Location: Pitton
(51.0667°N, 1.7000°W)
Time: 05:16:25
(UTC+00:00)

DMSP B5D2-2 - Pass Details

Date: 17 September 2019
Orbit: 790 x 806 km, 98.4° (Epoch: 20 October)

Event Time Altitude Azimuth Distance (km) Brightness Sun altitude
Rises 20:24:50 0° 17° (NNE) 3,334 7.5 -19.8°
Reaches altitude 10° 20:27:14 10° 23° (NNE) 2,399 6.7 -20.2°
Maximum altitude 20:32:26 53° 100° (E) 989 4.2 -20.9°
Enters shadow 20:33:47 42° 146° (SE) 1,140 4.4 -21.0°
